Location: Makanda
(37.6176°N, 89.2090°W)
Time: 18:47:04
(UTC+00:00)

SL-4 R/B - Pass Details

Date: 23 September 2019
Orbit: 428 x 667 km, 51.6° (Epoch: 21 October)

Event Time Altitude Azimuth Distance (km) Brightness Sun altitude
Exits shadow 10:25:21 18° 196° (SSW) 1,212 3.5 -16.5°
Drops below altitude 10° 10:26:49 10° 176° (S) 1,624 4.3 -16.2°
Sets 10:29:22 0° 161° (SSE) 2,541 5.5 -15.7°
